Regional Weather Roundup
Issued by NWS Goodland, KS

Home | Current Version | Previous Version | Text Only | Print | Product List | Glossary On
Versions: 1 2 3 4 5 6 7 8 9 10 11 12 13 14 15 16 17 18 19 20 21 22 23 24 25 26 27 28 29 30 31 32 33 34 35 36 37 38 39 40 41 42 43 44 45 46 47 48 49 50
000
ASUS43 KGLD 262159
RWRGLD

GOODLAND FORECAST AREA HOURLY WEATHER ROUNDUP
NATIONAL WEATHER SERVICE GOODLAND KS
400 PM MDT TUE JUL 26 2016

...OFFICIAL OBSERVATIONS...

CITY           SKY/WX    TMP DP  RH WIND       PRES   REMARKS
GOODLAND KS    SUNNY     91  64  40 SE15G24   30.02F
HILL CITY KS   SUNNY     89  67  47 SE16G22   29.99F
IMPERIAL NEB   SUNNY     92  61  35 S17       29.99F
MCCOOK NEB     MOSUNNY   92  64  39 SE14      29.98F
AKRON CO       CLOUDY    85  55  35 S12       30.07R
BURLINGTON CO  SUNNY     91  59  33 SE21      30.05F
LIMON CO       NOT AVBL
$$

...UNOFFICIAL OBSERVATIONS...

CITY           SKY/WX    TMP DP  RH WIND       PRES   REMARKS
COLBY KS       MOSUNNY   90  70  51 SE13      30.03F
LENORA KS        N/A     89  32  13 MISG        N/A
NORTON KS      SUNNY     90  54  29 SE9       30.00
SHARON SPRINGS   N/A     91  69  48 S12G21      N/A
KIT CARSON CO    N/A     92  62  36 MISG        N/A
YUMA CO          N/A     85  62  46 CALM        N/A
$$



USA.gov is the U.S. government's official web portal to all federal, state and local government web resources and services.